Theta_e
309 312 311 310 310 310 310 310 310 307 307 307 307 308 309 312 317 320 318 318 318 312 311 313 313 316 318 318 319 319 315 317 319 322 321 320 318 321 321 321 321 321 321 323 323
312 312 312 312 311 310 309 310 311 309 307 307 307 309 312 316 321 318 313 312 315 315 319 320 320 320 318 319 319 315 312 316 317 318 318 319 319 319 319 319 320 320 321 320 321
311 311 311 311 310 310 310 310 310 309 308 307 308 312 316 320 323 318 313 312 314 318 318 318 318 319 318 318 318 316 314 315 318 319 320 319 319 319 317 317 318 318 319 319 320
310 310 310 309 309 311 311 310 311 309 307 307 309 314 318 319 319 318 314 317 317 318 318 318 319 318 316 315 317 316 317 318 319 320 318 318 319 317 318 318 319 318 318 319 318
310 310 310 311 312 312 312 311 310 307 307 308 312 317 320 321 317 315 316 317 317 316 316 317 316 316 314 314 316 314 316 318 318 319 318 318 317 317 317 319 319 319 319 319 318
310 310 310 311 312 311 312 311 310 308 308 312 316 318 321 318 317 316 317 316 316 316 316 316 315 316 315 315 316 317 317 317 318 319 317 316 316 318 318 319 320 320 319 319 319
311 310 310 311 311 311 311 311 312 311 313 316 317 319 317 316 317 317 316 317 317 316 316 316 316 316 315 314 317 317 315 314 316 317 316 317 316 316 319 320 319 320 320 320 320
311 311 311 312 312 312 311 313 315 315 316 317 318 320 316 316 317 316 315 316 316 317 316 316 316 316 315 316 317 315 314 313 314 315 315 316 314 315 319 319 319 320 320 320 320
308 312 311 312 312 312 314 315 316 316 316 316 317 319 320 316 315 315 315 315 316 316 316 316 316 317 317 313 312 311 314 315 313 314 317 316 315 315 319 318 317 319 320 320 321
305 311 312 312 313 313 314 315 316 315 316 317 317 317 318 316 315 316 316 316 316 316 316 316 316 313 310 311 313 314 314 313 313 314 315 314 313 313 319 319 319 319 319 320 320
305 308 312 311 314 315 317 318 319 318 317 317 318 316 314 314 314 316 316 316 316 316 313 315 312 313 313 313 314 315 314 314 313 314 317 315 315 316 317 318 318 319 320 319 322
305 306 312 311 312 315 317 317 317 317 316 318 316 315 315 315 315 315 316 315 315 315 314 312 313 314 315 316 316 316 315 315 315 317 317 315 316 316 315 317 317 318 319 318 321
306 306 312 315 315 316 317 316 317 317 316 319 316 315 315 315 315 316 316 315 315 315 315 314 316 317 318 316 317 316 316 316 317 316 315 316 315 316 317 318 318 318 319 319 321
306 306 313 316 318 316 315 315 318 318 317 318 314 315 316 315 316 316 316 316 316 318 316 316 317 318 316 317 316 317 316 317 317 316 315 316 315 316 316 320 319 319 320 320 320
306 307 312 317 318 316 316 316 318 318 321 317 315 316 315 315 316 316 316 318 317 319 318 317 318 319 318 318 317 316 316 316 316 315 314 315 315 315 320 322 319 319 320 320 320
307 309 317 319 318 316 315 316 320 322 322 315 316 316 315 315 315 316 316 317 319 319 318 317 319 319 318 318 318 317 315 313 312 312 316 317 316 315 321 321 321 319 320 320 320
309 308 314 317 317 316 315 317 320 322 319 316 316 316 316 316 316 316 316 318 317 317 315 316 317 318 318 317 315 313 312 314 315 315 316 315 317 314 321 321 320 319 319 319 319
316 316 315 314 315 314 318 317 319 319 317 316 316 315 316 316 316 317 316 319 317 316 315 316 317 316 316 317 316 315 314 314 321 319 318 316 317 319 320 321 320 320 319 319 319
315 319 316 316 316 315 319 318 316 317 316 317 316 317 317 317 316 317 315 317 317 315 313 315 317 315 315 316 315 316 316 314 317 316 317 316 316 320 319 319 319 320 320 320 320
321 322 316 315 318 321 318 321 316 317 317 317 317 317 317 317 318 316 316 317 317 315 313 314 313 314 316 315 316 315 315 315 313 318 320 318 317 316 319 320 319 319 319 320 320
319 322 316 313 318 323 320 318 317 316 316 315 316 316 317 318 317 317 317 317 316 316 314 314 311 313 314 314 313 314 313 314 314 315 318 320 318 313 315 316 316 317 319 319 318
318 315 315 314 316 315 314 314 316 317 317 316 316 316 317 317 317 317 318 318 316 315 314 314 311 314 314 314 314 314 314 314 311 316 312 315 318 317 316 314 314 315 318 317 315
316 319 316 316 311 310 313 315 317 317 317 316 315 316 315 315 314 317 317 318 316 315 314 313 311 309 311 311 313 315 316 314 313 311 311 314 317 314 314 314 315 317 315 313 313
315 311 314 314 315 313 313 314 315 317 315 316 316 315 316 317 316 316 317 318 316 316 317 314 310 312 317 314 313 315 315 315 315 303 315 316 315 313 312 313 314 313 313 313 313
311 311 309 309 311 312 313 314 316 314 313 313 313 315 315 309 314 316 316 315 315 315 317 310 311 312 313 313 314 314 316 316 315 315 313 316 315 313 313 314 313 313 313 313 312
309 308 308 309 313 312 309 310 313 313 312 312 311 312 312 313 312 313 313 313 314 314 315 311 314 314 316 315 316 318 318 318 317 317 316 315 314 314 314 314 313 313 312 311 310
306 307 308 310 310 309 309 310 311 310 311 311 311 310 312 313 312 312 312 313 312 311 310 311 309 305 314 313 313 313 314 316 317 316 315 316 315 313 313 312 312 312 311 311 310
Wind_Speed
13 12 12 12 11 9 7 6 4 1 2 4 4 4 6 8 8 4 4 4 4 1 3 4 5 3 5 4 6 2 3 4 4 1 1 9 8 15 7 13 11 11 15 2 7
16 14 13 13 12 10 9 5 3 1 3 5 6 7 9 7 3 2 1 2 4 4 4 2 2 3 4 3 4 4 4 7 6 1 3 3 4 7 8 15 9 15 10 12 3
16 17 18 17 11 9 8 5 3 1 3 5 8 9 8 3 3 2 3 6 8 5 2 1 4 7 9 7 6 4 6 5 10 13 10 3 0 5 5 4 10 13 18 16 12
16 17 19 18 13 8 7 5 2 2 3 6 9 10 5 2 4 3 10 8 4 2 4 5 6 3 2 4 5 4 13 16 11 7 5 3 1 4 5 9 15 15 18 18 14
14 16 19 17 14 11 7 3 4 4 6 9 11 7 4 3 3 14 9 6 6 12 15 10 4 3 0 3 8 3 4 6 7 8 10 7 4 4 10 12 12 17 16 18 16
13 14 16 15 14 12 7 4 4 6 10 13 10 4 3 3 8 7 9 9 8 9 9 10 5 6 2 4 1 6 4 8 8 16 12 5 5 2 14 18 15 15 11 10 12
12 13 14 13 12 11 8 6 9 13 15 11 6 2 4 4 2 5 6 5 6 4 5 8 11 5 7 7 7 7 6 9 13 14 7 2 6 6 20 17 14 8 12 7 11
13 11 13 12 10 10 9 11 15 14 10 7 6 5 2 3 3 3 5 3 5 3 5 8 9 5 3 7 8 5 5 4 8 8 6 8 8 10 16 17 13 10 14 18 19
15 9 10 9 8 9 12 13 12 9 5 4 4 5 2 6 4 0 6 7 3 3 7 12 7 4 5 3 5 6 1 3 8 6 1 4 7 10 16 18 20 20 20 22 17
16 7 7 5 6 9 8 8 7 3 7 7 4 3 1 4 3 5 1 5 4 4 8 4 4 2 4 4 3 3 2 4 5 6 3 4 7 7 13 15 18 20 23 23 24
17 8 3 2 5 8 5 3 5 1 11 6 6 3 5 3 0 0 6 8 8 8 2 3 3 5 7 6 6 3 3 4 5 6 6 7 8 10 16 17 19 25 27 28 7
16 9 1 3 4 3 4 5 8 6 7 6 5 3 4 1 1 3 12 5 4 3 2 5 5 9 7 3 1 2 3 5 4 6 6 8 17 8 6 11 19 24 31 14 15
16 7 2 6 5 1 4 5 6 6 1 7 9 3 2 4 1 1 11 5 2 3 6 5 6 1 4 7 6 5 4 4 5 7 6 7 10 7 14 11 27 28 25 21 22
16 5 5 5 3 8 7 8 5 4 4 2 3 4 5 2 2 3 3 2 4 3 7 3 6 2 4 4 4 3 4 5 6 6 2 4 5 5 6 7 13 22 30 26 24
13 3 4 6 6 9 9 10 3 3 3 5 3 3 4 5 7 5 3 4 3 3 4 6 5 4 3 4 3 5 4 5 4 5 2 5 2 6 4 4 2 8 17 23 22
10 4 8 5 7 8 10 3 1 4 2 3 4 2 2 6 4 5 7 5 3 2 4 7 10 3 4 2 4 1 5 7 5 4 1 4 5 5 1 3 1 5 15 15 13
9 6 4 2 7 9 6 1 4 3 0 0 2 1 1 2 4 2 1 2 2 5 6 7 6 4 6 3 5 8 7 4 5 4 5 5 5 8 2 2 4 6 12 12 12
8 8 4 6 10 7 4 4 7 3 4 4 4 7 3 3 0 2 2 3 4 4 2 3 4 5 11 3 5 2 6 4 3 3 5 5 6 5 6 8 7 8 8 6 5
3 5 7 10 13 5 3 5 2 3 4 7 7 6 7 7 5 6 5 2 3 2 5 3 5 8 3 6 4 2 2 5 3 2 2 4 2 4 5 2 6 7 1 6 9
4 3 10 9 9 6 5 1 3 3 3 5 5 5 6 5 4 4 4 5 4 2 5 3 4 5 6 4 4 5 2 3 3 2 4 4 4 5 7 2 4 4 5 9 10
5 3 9 10 6 5 3 1 3 6 7 4 4 4 5 4 4 5 3 4 5 2 3 2 4 6 4 4 5 4 4 2 1 5 5 3 5 6 7 7 7 7 10 7 9
6 3 11 5 6 3 2 6 5 3 9 6 4 5 4 5 4 3 4 2 1 2 2 2 3 4 8 17 10 8 9 5 4 7 4 4 8 6 11 10 14 10 6 5 6
7 6 17 5 3 4 7 5 4 4 3 3 5 3 0 2 3 2 3 5 3 2 2 4 1 4 9 6 4 6 1 3 3 1 6 4 8 7 16 21 28 6 3 2 9
6 4 6 9 7 2 5 5 6 11 14 8 5 7 6 5 4 5 4 4 16 11 11 5 5 8 13 10 4 11 11 13 5 3 8 13 18 17 15 13 2 3 5 11 20
8 4 5 4 5 9 3 3 4 5 4 8 5 7 3 2 5 3 5 7 12 14 2 2 5 6 14 16 14 18 18 18 19 18 8 25 20 21 7 2 3 6 14 22 30
5 7 8 7 10 7 8 6 8 5 3 5 3 3 1 2 3 5 4 3 6 5 2 1 9 4 22 12 15 20 20 23 21 20 17 17 23 3 3 5 8 15 14 18 22
9 5 4 6 7 4 4 5 4 6 5 12 5 3 3 2 12 18 21 20 20 13 16 3 3 3 22 11 12 15 13 19 20 18 14 15 11 2 3 8 15 16 21 28 30
Wind_Direction
28 22 16 14 13 11 3 5 15 1 223 211 194 178 161 140 128 132 166 220 229 258 220 211 208 174 193 249 234 219 74 234 245 285 291 346 21 8 348 24 25 26 45 71 173
23 20 11 360 350 349 344 327 322 325 214 196 174 151 146 137 127 113 30 158 192 147 129 155 167 287 247 237 226 151 147 221 207 236 303 318 16 1 5 354 354 354 349 13 100
13 10 4 357 352 349 345 328 317 203 190 175 161 153 141 128 141 48 98 111 140 145 168 262 293 304 214 231 230 203 210 221 263 280 288 231 121 354 21 342 317 321 322 326 321
7 7 5 11 26 38 16 12 97 137 146 154 153 150 135 24 157 30 123 98 87 29 312 295 307 262 228 221 265 252 250 234 252 278 321 219 231 303 247 270 297 303 303 297 305
5 7 8 16 23 14 14 70 90 108 126 136 140 126 47 53 41 120 101 57 22 8 2 317 21 13 32 290 324 198 318 284 286 310 310 308 298 270 272 293 287 292 286 282 281
8 2 8 11 15 18 23 91 88 107 120 127 130 105 67 64 83 89 51 52 19 11 17 47 18 358 313 300 61 310 304 321 299 293 281 252 278 324 272 292 296 305 281 280 284
8 5 5 12 17 27 52 77 96 110 118 122 115 72 94 102 82 51 4 5 354 316 6 8 346 311 333 321 321 313 353 342 307 292 261 74 326 248 273 283 304 285 267 261 265
11 8 6 13 27 41 72 97 107 113 116 102 58 23 45 198 167 312 317 292 249 305 324 324 339 325 242 311 350 11 42 11 289 321 329 149 253 269 273 269 262 245 261 265 280
7 11 9 22 45 79 104 110 115 108 83 15 2 14 349 131 148 89 4 352 331 204 274 290 297 328 343 58 8 4 224 238 313 325 126 171 247 258 300 292 281 277 283 279 272
3 1 18 32 76 94 110 117 119 73 342 332 313 332 152 151 31 103 49 338 325 319 312 276 224 24 5 81 212 249 330 300 289 279 12 254 253 277 306 307 296 299 299 290 289
357 358 13 74 144 109 76 49 10 293 331 280 306 291 85 21 322 130 4 330 304 267 225 302 93 227 231 192 197 179 213 256 268 321 359 335 307 309 303 311 311 313 311 309 316
355 351 358 149 161 187 43 27 350 313 307 281 254 252 6 9 264 117 3 26 5 244 4 7 230 240 207 74 35 5 10 331 294 344 21 323 300 286 292 305 307 300 300 295 130
355 356 109 138 142 329 329 1 11 332 310 302 219 204 269 260 277 78 353 344 265 310 310 181 247 185 77 41 50 11 88 337 293 335 350 357 330 356 321 355 31 63 77 81 92
356 10 155 154 82 46 39 347 320 248 62 265 216 215 223 213 297 234 3 36 344 336 332 277 332 53 81 82 96 20 309 322 317 6 268 69 285 304 306 23 45 68 68 62 64
5 45 125 138 76 35 25 340 238 260 70 190 180 210 197 185 163 230 218 167 233 281 64 264 305 348 25 157 128 233 296 289 260 239 89 330 115 264 356 60 74 88 70 71 65
12 112 116 90 49 17 339 319 140 49 126 165 160 202 150 228 206 165 201 230 319 334 309 245 274 249 152 197 87 283 12 338 12 113 123 207 190 283 276 275 2 351 81 66 74
38 88 125 58 341 339 351 350 53 90 5 34 252 33 176 133 170 166 332 62 104 29 0 330 2 51 36 51 3 58 47 343 360 8 212 253 11 246 312 51 137 65 66 57 43
77 83 80 20 13 22 18 56 64 30 11 356 322 298 211 172 105 278 73 128 27 76 87 10 325 12 335 228 199 215 147 157 259 233 253 287 236 240 200 193 148 124 109 79 38
120 57 26 22 14 3 1 55 153 39 347 347 334 55 22 8 20 34 358 129 133 141 120 55 275 315 51 338 132 265 272 187 182 269 8 238 311 356 210 250 137 139 232 336 333
20 24 20 3 9 347 65 307 68 57 5 20 35 40 33 350 39 28 339 19 127 97 111 194 297 267 311 343 269 149 217 356 359 275 265 278 238 237 222 152 182 214 235 251 278
31 64 17 6 358 30 90 256 98 89 67 68 24 351 2 18 18 345 326 355 48 95 109 151 154 281 7 245 216 329 326 318 213 157 200 252 242 217 204 208 220 245 261 279 301
37 48 13 322 42 29 10 295 327 91 51 37 53 42 29 356 347 347 326 225 11 349 292 265 174 265 240 267 270 246 257 155 132 280 230 191 256 245 276 294 294 305 255 279 302
13 347 39 76 69 343 317 325 9 37 61 60 16 55 352 295 4 281 270 332 100 298 230 202 297 335 336 349 22 87 327 177 210 172 209 229 262 315 322 312 301 272 303 8 330
15 10 360 46 59 57 7 313 342 13 50 26 34 29 21 352 20 306 308 317 351 350 324 202 185 192 256 240 225 280 263 281 224 179 269 252 284 285 291 298 353 102 351 333 329
29 38 13 324 336 343 330 286 28 14 47 33 18 25 68 339 327 326 357 330 332 319 57 166 233 235 249 265 267 264 259 251 249 257 223 281 276 288 276 287 102 334 320 319 316
48 9 347 305 315 333 2 354 5 330 25 8 55 298 12 89 155 289 319 238 226 296 282 332 276 295 280 279 278 277 263 258 253 259 260 265 277 175 114 345 283 280 284 291 297
42 26 337 307 345 34 350 336 0 360 328 9 10 12 37 319 310 291 279 260 251 263 273 210 274 7 283 308 287 278 253 255 259 262 255 258 280 112 236 261 282 286 304 316 314